Find GSAT-2

NORAD ID: 27807 Int'l Des: 2003-018 Owner: ISRO Country: IN operational
HEOCIRCULAR

リアルタイム位置

3D地球を読み込み中...

GSAT-2について

説明を読み込み中...

次回通過

Passes for default location (London). Set your location on the main map for personalized predictions.

高度履歴

Loading altitude history...

軌道要素

1 27807U 03018A 26134.03119455 -.00000165 00000-0 00000+0 0 9992
2 27807 11.1115 41.9864 0012125 346.9731 201.5242 0.99857366 84092
Epoch: May 14, 2026 • Age: 15 hours

現在のステータス

高度 35880.2 km
速度 3.07 km/s
衛星直下点 8.77°N, 13.86°W
打ち上げ日 May 8, 2003
運用期間 23 years
タイプ other

技術仕様

分類 Payload
質量 1800.00 kg
乾燥質量 840.00 kg
総質量 1800.00 kg
長さ 2.40 m
直径 1.60 m
スパン 9.60 m
形状 Box + 2 Pan
製造者 ISRO
バスタイプ I2K
フェーズステータス In Orbit
所有者/国 ISRO/IN

Most Searched